sat.trackr.live / text

‹ back to catalog

JCSAT-5A

NORAD 29045 · 2006-010A

PAYLOAD ACTIVE UNKNOWN

§ Identity

Operator
Country
JPN
Launch date
2006-04-12
Launch site
SEAL
Launch vehicle
Mass (kg)
RCS (m²)
19.95

Purposes: comms

External: N2YO · Heavens-Above · Gunter

§ Orbital elements

Epoch: 2026-09-19T20:41:38.647968Z

Period
1,436.11 min
Inclination
1.3457°
Eccentricity
0.0001567
Mean motion
1.00271100 rev/d
Perigee alt
35,780.2 km
Apogee alt
35,793.4 km
Semi-major
42,164.9 km
B*
0.0000e+0
RAAN
82.9448°
Arg perigee
51.3789°
Mean anomaly
306.9204°
Rev number
7,471

§ Raw data

JCSAT-5A1 29045U 06010A   26262.86225287 -.00000332  00000+0  00000+0 0  99922 29045   1.3457  82.9448 0001567  51.3789 306.9204  1.00271100 74714

JSON: /api/v1/satellites/29045 · /tle

For live sub-satellite position, see the globe view (requires WebGL).

§ Visibility from observer

Set your observer location to see the next 7 days of passes ≥ 10°. The values pass through the URL so the page stays shareable.

No JS? Fill the form by hand. The geolocation button needs JavaScript.